This is the latest recevied weather packets stored in our database for station/object SP9KB-13. If no packets are shown the sender has not sent any weather packets the latest 10 day(s).
| Time | Temp. | Humidity | Pressure | Rain* | Wind** | Luminosity | Snow |
|---|---|---|---|---|---|---|---|
| 1777957536 | 11.67° C | 69% | 995.9 hPa | 0 mm | - | - | - |
| 1777957236 | 10° C | 74% | 995.9 hPa | 0 mm | - | - | - |
| 1777956935 | 8.89° C | 74% | 996 hPa | 0 mm | - | - | - |
| 1777956635 | 7.78° C | 79% | 996 hPa | 0 mm | - | - | - |
| 1777956334 | 7.22° C | 82% | 995.9 hPa | 0 mm | - | - | - |
| 1777956034 | 7.22° C | 82% | 995.9 hPa | 0 mm | - | - | - |
| 1777955733 | 7.22° C | 81% | 996 hPa | 0 mm | - | - | - |
| 1777955433 | 6.67° C | 82% | 996 hPa | 0 mm | - | - | - |
| 1777955132 | 6.11° C | 83% | 995.8 hPa | 0 mm | - | - | - |
| 1777954831 | 5° C | 87% | 995.9 hPa | 0 mm | - | - | - |
| 1777954531 | 4.44° C | 89% | 995.9 hPa | 0 mm | - | - | - |
| 1777954230 | 3.89° C | 94% | 995.9 hPa | 0 mm | - | - | - |
| 1777953929 | 2.78° C | 96% | 996 hPa | 0 mm | - | - | - |
| 1777953629 | 1.67° C | 96% | 996 hPa | 0 mm | - | - | - |
| 1777943709 | 3.33° C | 90% | 996.1 hPa | 0 mm | - | - | - |
| 1777943409 | 3.89° C | 90% | 996.1 hPa | 0 mm | - | - | - |
| 1777943108 | 3.89° C | 90% | 996.2 hPa | 0 mm | - | - | - |
| 1777942508 | 4.44° C | 89% | 996.3 hPa | 0 mm | - | - | - |
| 1777942207 | 4.44° C | 88% | 996.1 hPa | 0 mm | - | - | - |
| 1777940704 | 5.56° C | 84% | 996.1 hPa | 0 mm | - | - | - |
| 1777940103 | 5.56° C | 84% | 996.2 hPa | 0 mm | - | - | - |
| 1777939508 | 5° C | 86% | 996.3 hPa | 0 mm | - | - | - |
| 1777937398 | 6.67° C | 80% | 996.6 hPa | 0 mm | - | - | - |
| 1777936797 | 6.67° C | 81% | 996.4 hPa | 0 mm | - | - | - |
| 1777934392 | 7.78° C | 76% | 996.6 hPa | 0 mm | - | - | - |
* Rain latest hour (hover to see other rain measurements)
** Current wind speed in m/s (hover to see current wind gust speed)